STARLINK-32822, 62868

Orbit data source: Space-Track

STARLINK-32822, 62868 is a payload satellite owned by SpaceX/Seattle (US) in LEO that was launched on Sat, 01 Feb 2025 UTC via an FALCON 9 launch vehicle from the Air Force Western Test Range (AFWTR). Payload-class satellites include a variety of spacecraft equipped with specific instruments for various scientific and technological missions. These include communications satellites like Starlink; space stations such as the ISS; scientific satellites like the Hubble; Earth observation satellites from companies like Planet Labs, Umbra, and HawkEye 360; GPS; miniature CubeSats for education and research; and military/defense satellites.

Loading next visibility...
Identifier
62868, 2025-022Q
Orbit
LEO
Country
Flag of USUS
Related business
Manufacturer
SpaceX/Seattle
Mission
Operational Commercial Communications
Bus & Motor
STARLINK V2M, Unknown motor
Mass
730 kg wet, ~700 kg dry
Launch date (UTC)
2025-02-01 (11 months ago)
Launch vehicle
FALCON 9
Launch site
Air Force Western Test Range (AFWTR)
Object type
Payload
Rocket body
Debris
Shape & HBR
Box + 2 Pan, 17.7 m
Radar Cross Section
33.884 m², Large (>1 m²)

Expand to show TLE details & history
Last TLE update: 1 day ago

TLE from 1 day ago
0 STARLINK-32822
1 62868U 25022Q   25351.74669981  .00035952  00000-0  12187-2 0  9992
2 62868  53.1575 150.2806 0001150 104.5176 255.5952 15.30238869 49350
Epoch: 2025-12-17T17:55Z
TLE epoch observation values (Epoch: 2025-12-17T17:55:14.863Z)
Latitude
-0.00006°
Longitude
154.8565°
Altitude
476.195 km
Speed
7.629 km/s
True Right ascension
10h 01m 07s
True Declination
0° 00' 00"
Sunlit
Object was in full shadow at epoch
Visualization orbit readout
Latitude
Unknown
Longitude
Unknown
Altitude
Unknown
Speed
Unknown
Apparent Right ascension
Unknown
Apparent Declination
Unknown
Sunlit
N/A
Visualization observer readout
Local Sidereal Time
18:12:10
Azimuth
Unknown
Elevation
Unknown
Doppler factor
Unknown
Orbital elements
Apogee altitude
476.144 km
Perigee altitude
474.568 km
Semi-major axis
6,853.493 km
Eccentricity
0.00012
Inclination
53.1575°
RAAN
150.2806°
Arg. of periapsis
104.5176°
True anomaly
255.58244°
Mean anomaly
255.5952°
Eccentric anomaly
255.58882°
Mean motion
3.82539 °/min
Orbital period
94.11 mins
BSTAR
0.0012187
Loading maneuver chart data...
Computing Atmospheric mass density...
Loading historical data...
Loading historical data...
Loading historical data...
Loading historical data...
Loading historical data...
Loading historical data...
Loading historical data...

Documentation

Showing up to 5 results
|